NIEUW!!! Volg onze weer- en natuurfoto's op Instagram @ weerstationmaaseik.be

WS Maaseik 1 Meer informatie WS Maaseik 1


WS Maaseik 2 Meer informatie WS Maaseik 2


waarschuwing voor Regen Meer informatie rain snow radar


Bezoek onze andere website:

Vorige versie
weerstation Maaseik


Bezoek ook eens deze sites:

Weerstation Geleen



Regen van: 25-09-2020 21:59 tot: 26-09-2020 23:59 waarschuwing voor: Regen niveau: Geel info button

15 daagse weersverwachting Latina (IT)

  • Overzicht
  • Per uur
  • 15 dagen
  • Extra
  • Vergelijk
  • Kaarten
  • Dagkaart
  • Meer »
  • Info
  • Statistieken
  • Directe link
    Temp 6h Neerslag Wind  
 07:02     18:57    Daglengte: 11:55 Morgen
02:00
15°
14.2 mm
3
08:00
14°
13.5 mm
3
14:00
18°
3.3 mm
6
20:00
16°
6.7 mm
3
 07:03     18:56    Daglengte: 11:53 Zondag 27 Sep
02:00
13°
7.8 mm
2
08:00
14°
8.2 mm
4
14:00
16°
48.9 mm
6
20:00
16°
47.2 mm
4
 07:04     18:54    Daglengte: 11:50 Maandag 28 Sep
02:00
11°
12.5 mm
2
08:00
13°
 
3
14:00
18°
145.5 mm
4
20:00
15°
149.5 mm
3
Locatie info
Region: Lazio
Latitude: 41.4627°N
Longitude: 12.9051°E
27 masl
Postcode: 04100
Temp/Neerslag /Baro Onweer/Dauwpunt
    Temp Baro 1h Neerslag Dauwpunt Wind UV Bewolking  
 07:01     18:59    Daglengte: 11:58 Vandaag
23:00
16°
1000.9 hPa 3.5 mm
48%
13.2°
6
Windvlaag: 1.2 m/s
71%
 07:02     18:57    Daglengte: 11:55 Morgen
00:00
15°
1000.2 hPa 4.2 mm
82%
12.6°
4
Windvlaag: 0.6 m/s
70% warningclass
01:00
15°
999.6 hPa 3.3 mm
82%
12.5°
3
Windvlaag: 1.2 m/s
52%
02:00
15°
999.0 hPa 3.2 mm
78%
12.3°
3
Windvlaag: 1.2 m/s
56%
03:00
14°
998.6 hPa
82%
12.3°
3
Windvlaag: 1.3 m/s
48%
04:00
14°
998.3 hPa 3.1 mm
82%
11.6°
3
Windvlaag: 2.5 m/s
60%
05:00
14°
997.9 hPa 3.2 mm
81%
11.9°
2
Windvlaag: 2.1 m/s
60%
06:00
14°
997.5 hPa
64%
11.9°
2
Windvlaag: 0.1 m/s
49%
07:00
14°
997.8 hPa 3.2 mm
64%
11.5°
3
Windvlaag: 1.5 m/s
52% warningclass
08:00
14°
998.3 hPa 4.0 mm
68%
11.1°
3
Windvlaag: -0.7 m/s
53%
09:00
15°
998.5 hPa 3.3 mm
66%
11.1°
3
Windvlaag: -1.4 m/s
71%
10:00
15°
999.1 hPa
63%
11.8°
3
Windvlaag: -0.5 m/s
71%
11:00
17°
999.6 hPa
61%
12.1°
4
Windvlaag: -1.4 m/s
45%
12:00
18°
1000.0 hPa
64%
12.1°
4
Windvlaag: -1 m/s
41%
13:00
18°
1000.2 hPa
65%
12.2°
5
Windvlaag: 0.2 m/s
17%
14:00
18°
1000.8 hPa
60%
12.2°
6
Windvlaag: -1.7 m/s
17%
15:00
18°
1000.9 hPa
17%
10.4°
5
Windvlaag: -2 m/s
21%
16:00
18°
1000.9 hPa
17%
9.7°
5
Windvlaag: -1.6 m/s
16%
17:00
18°
1001.0 hPa 6.7 mm
16%
11.3°
4
Windvlaag: -1.2 m/s
12%
18:00
18°
1000.9 hPa
22%
11.3°
3
Windvlaag: 0.4 m/s
6%
19:00
16°
1001.2 hPa
25%
11.6°
2
Windvlaag: 0.3 m/s
14%
20:00
16°
1001.6 hPa
59%
10.5°
3
Windvlaag: 1.2 m/s
23%
21:00
16°
1002.1 hPa
20%
11.1°
3
Windvlaag: 1.9 m/s
31%
22:00
15°
1002.6 hPa
56%
11.9°
2
Windvlaag: 1.9 m/s
35%
23:00
14°
1002.9 hPa 7.8 mm
21%
11.3°
2
Windvlaag: 1.9 m/s
14%
 07:03     18:56    Daglengte: 11:53 Zondag 27 Sep
00:00
14°
1003.1 hPa
20%
11.5°
3
Windvlaag: 1.2 m/s
23%
01:00
13°
1003.4 hPa
21%
11.2°
3
Windvlaag: 1 m/s
10%
02:00
13°
1003.7 hPa
24%
11.1°
2
Windvlaag: 1.1 m/s
7%
03:00
13°
1003.7 hPa
24%
11.0°
2
Windvlaag: 1.6 m/s
19%
04:00
13°
1003.7 hPa
61%
10.8°
2
Windvlaag: 1.5 m/s
17%
05:00
13°
1003.3 hPa
64%
10.6°
2
Windvlaag: 0.6 m/s
11%
06:00
13°
1003.5 hPa
67%
10.4°
2
Windvlaag: 1 m/s
36%
07:00
13°
1003.8 hPa
66%
10.3°
3
Windvlaag: -0.4 m/s
60%
08:00
14°
1004.3 hPa 8.2 mm
81%
10.6°
4
Windvlaag: -0.4 m/s
88%
09:00
15°
1004.6 hPa 8.7 mm
81%
11.5°
4
Windvlaag: 1.4 m/s
91%
10:00
15°
1004.5 hPa 6.4 mm
81%
12.4°
4
Windvlaag: 1.5 m/s
91%
11:00
15°
1004.3 hPa 6.9 mm
82%
12.7°
5
Windvlaag: 1.2 m/s
91%
12:00
16°
1003.5 hPa 8.3 mm
82%
13.1°
6
Windvlaag: 1.1 m/s
91%
13:00
16°
1002.6 hPa 9.1 mm
82%
13.3°
6
Windvlaag: 0.9 m/s
90%
14:00
16°
1001.1 hPa 9.4 mm
82%
14.6°
6
Windvlaag: 0.6 m/s
90%
15:00
17°
999.7 hPa 10.9 mm
82%
15.2°
7
Windvlaag: 0.3 m/s
91%
16:00
16°
999.7 hPa 11.2 mm
82%
13.9°
7
Windvlaag: 0.4 m/s
88%
17:00
16°
1001.5 hPa 10.1 mm
100%
12.7°
5
Windvlaag: -1.6 m/s
94%
18:00
16°
1001.6 hPa 14.9 mm
87%
11.6°
4
Windvlaag: -0.7 m/s
43%
19:00
16°
1002.3 hPa
88%
9.7°
3
Windvlaag: -1.7 m/s
58%
20:00
16°
1003.5 hPa
30%
9.5°
4
Windvlaag: -3.6 m/s
38%
21:00
15°
1004.4 hPa
73%
9.5°
4
Windvlaag: -2.5 m/s
31%
22:00
14°
1005.6 hPa 12.5 mm
35%
9.8°
4
Windvlaag: -1.5 m/s
27%
23:00
14°
1006.7 hPa
76%
11.0°
3
Windvlaag: 1.6 m/s
29%
 07:04     18:54    Daglengte: 11:50 Maandag 28 Sep
00:00
14°
1007.1 hPa
30%
10.4°
3
Windvlaag: 0.3 m/s
14%
01:00
12°
1007.5 hPa
27%
9.7°
2
Windvlaag: 0.4 m/s
38%
02:00
11°
1008.0 hPa
30%
9.6°
2
Windvlaag: 0.7 m/s
70%
03:00
11°
1008.1 hPa
30%
9.6°
2
Windvlaag: 1 m/s
70%
04:00
11°
1008.1 hPa
31%
9.5°
2
Windvlaag: 0.7 m/s
40%
05:00
11°
1008.2 hPa
75%
8.8°
2
Windvlaag: 0.8 m/s
87%
06:00
12°
1008.4 hPa
76%
8.1°
2
Windvlaag: 0.6 m/s
66%
07:00
12°
1008.9 hPa
77%
7.5°
2
Windvlaag: 0.7 m/s
79%
08:00
13°
1009.5 hPa
84%
8.2°
3
Windvlaag: 0.6 m/s
90%
09:00
14°
1009.9 hPa 23.1 mm
81%
9.4°
3
Windvlaag: 1.1 m/s
87%
10:00
15°
1010.3 hPa 24.3 mm
86%
10.3°
3
Windvlaag: -0.6 m/s
85%
11:00
16°
1010.3 hPa 24.3 mm
88%
11.9°
3
Windvlaag: -0.5 m/s
80%
12:00
18°
1010.3 hPa 24.3 mm
92%
13.2°
3
Windvlaag: 4.1 m/s
84%
13:00
18°
1010.3 hPa 24.8 mm
100%
13.8°
3
Windvlaag: 5.2 m/s
82% warningclass
14:00
18°
1010.3 hPa 24.6 mm
100%
14.1°
4
Windvlaag: 3 m/s
77%
15:00
17°
1009.9 hPa 24.7 mm
100%
13.9°
4
Windvlaag: 10.5 m/s
77%
16:00
17°
1009.8 hPa 24.4 mm
100%
13.8°
4
Windvlaag: 9.5 m/s
77%
17:00
17°
1009.8 hPa 24.6 mm
95%
13.7°
4
Windvlaag: 9.9 m/s
80%
18:00
16°
1009.9 hPa 24.8 mm
100%
13.8°
4
Windvlaag: 9.1 m/s
84%
19:00
16°
1010.2 hPa 25.5 mm
100%
13.8°
3
Windvlaag: 8.8 m/s
86%
20:00
15°
1010.4 hPa 25.5 mm
100%
13.8°
3
Windvlaag: 1.2 m/s
89%
21:00
14°
1011.7 hPa 72.3 mm
100%
12.5°
2
Windvlaag: 7.8 m/s
71%
22:00
14°
1012.0 hPa 72.3 mm
100%
12.1°
2
Windvlaag: 5.4 m/s
59%
Temp/Neerslag /Baro Onweer/Dauwpunt
    Temp Baro Neerslag Dauwpunt Wind Bewolking  
 07:01     18:59    Daglengte: 11:58 Vandaag
23:00
16°
1000.9 hPa 3.5 mm 13.2°
6
71%
 07:02     18:57    Daglengte: 11:55 Morgen
02:00
15°
999.0 hPa 10.7 mm 12.3°
3
56%
05:00
14°
997.9 hPa 6.3 mm 11.9°
2
60%
08:00
14°
998.3 hPa 7.2 mm 11.1°
3
53%
11:00
17°
999.6 hPa 3.3 mm 12.1°
4
45%
14:00
18°
1000.8 hPa   12.2°
6
17%
17:00
18°
1001.0 hPa 6.7 mm 11.3°
4
12%
20:00
16°
1001.6 hPa   10.5°
3
23%
23:00
14°
1002.9 hPa 7.8 mm 11.3°
2
14%
 07:03     18:56    Daglengte: 11:53 Zondag 27 Sep
02:00
13°
1003.7 hPa   11.1°
2
7%
05:00
13°
1003.3 hPa   10.6°
2
11%
08:00
14°
1004.3 hPa 8.2 mm 10.6°
4
88%
11:00
15°
1004.3 hPa 22.0 mm 12.7°
5
91%
14:00
16°
1001.1 hPa 26.8 mm 14.6°
6
90%
17:00
16°
1001.5 hPa 32.3 mm 12.7°
5
94%
20:00
16°
1003.5 hPa 14.9 mm 9.5°
4
38%
23:00
14°
1006.7 hPa 12.5 mm 11.0°
3
29%
 07:04     18:54    Daglengte: 11:50 Maandag 28 Sep
02:00
11°
1008.0 hPa   9.6°
2
70%
05:00
11°
1008.2 hPa   8.8°
2
87%
08:00
13°
1009.5 hPa   8.2°
3
90%
11:00
16°
1010.3 hPa 71.7 mm 11.9°
3
80%
14:00
18°
1010.3 hPa 73.8 mm 14.1°
4
77%
17:00
17°
1009.8 hPa 73.7 mm 13.7°
4
80%
20:00
15°
1010.4 hPa 75.8 mm 13.8°
3
89%
23:00
14°
1012.3 hPa 217.0 mm 11.8°
2
43%
 07:05     18:52    Daglengte: 11:47 Dinsdag 29 Sep
02:00
13°
1013.0 hPa 217.1 mm 10.6°
1
0%
05:00
12°
1014.9 hPa 71.1 mm 9.4°
1
0%
08:00
13°
1015.6 hPa 71.1 mm 9.1°
1
0%
11:00
17°
1016.5 hPa 71.1 mm 10.2°
2
0%
14:00
21°
1017.4 hPa 71.1 mm 10.6°
3
0%
17:00
19°
1016.9 hPa 71.1 mm 12.2°
2
46%
20:00
18°
1016.5 hPa 71.2 mm 13.4°
1
92%
23:00
17°
1016.3 hPa 71.8 mm 14.2°
2
72%
 07:06     18:51    Daglengte: 11:45 Woensdag 30 Sep
02:00
17°
1016.0 hPa 72.8 mm 15.0°
3
52%
05:00
17°
1015.3 hPa 73.6 mm 15.0°
3
47%
08:00
18°
1014.6 hPa 74.1 mm 15.0°
4
42%
11:00
20°
1014.2 hPa 74.4 mm 16.0°
3
36%
14:00
22°
1013.7 hPa 74.7 mm 16.7°
2
29%
17:00
20°
1013.2 hPa 74.7 mm 16.5°
2
53%
20:00
19°
1012.8 hPa 74.7 mm 16.3°
1
76%
23:00
18°
1012.8 hPa 74.7 mm 15.5°
1
50%
 07:07     18:49    Daglengte: 11:42 Donderdag 01 Okt
02:00
17°
1012.7 hPa 74.7 mm 14.7°
1
25%
05:00
17°
1012.4 hPa 74.7 mm 14.6°
1
16%
08:00
17°
1012.1 hPa 74.7 mm 14.5°
1
8%
11:00
19°
1012.4 hPa 74.8 mm 15.5°
1
32%
14:00
21°
1012.6 hPa 75.2 mm 16.5°
2
57%
17:00
20°
1012.4 hPa 76.3 mm 16.2°
2
48%
20:00
18°
1012.3 hPa 76.6 mm 15.7°
1
40%
23:00
17°
1012.0 hPa 76.6 mm 15.4°
1
62%
 07:08     18:47    Daglengte: 11:39 Vrijdag 02 Okt
02:00
17°
1011.7 hPa 76.6 mm 15.1°
1
83%
05:00
17°
1011.3 hPa 76.6 mm 15.2°
2
69%
08:00
18°
1011.0 hPa 76.6 mm 15.4°
2
55%
11:00
20°
1011.9 hPa 76.6 mm 14.7°
4
42%
14:00
21°
1012.6 hPa 76.6 mm 13.4°
6
29%
17:00
20°
1012.9 hPa 76.6 mm 12.9°
3
44%
20:00
18°
1013.2 hPa 153.2 mm 12.3°
1
58%
 07:09     18:46    Daglengte: 11:37 Zaterdag 03 Okt
02:00
14°
1015.2 hPa 153.2 mm 11.1°
1
23%
08:00
16°
1015.9 hPa 153.2 mm 11.0°
1
16%
14:00
21°
1016.6 hPa 153.8 mm 13.1°
3
17%
20:00
17°
1016.3 hPa 153.9 mm 13.9°
1
1%
 07:10     18:44    Daglengte: 11:34 Zondag 04 Okt
02:00
16°
1016.8 hPa 153.9 mm 11.4°
1
37%
08:00
17°
1016.3 hPa 153.9 mm 12.9°
1
32%
14:00
22°
1015.8 hPa 154.8 mm 16.2°
3
22%
20:00
18°
1014.6 hPa 168.5 mm 16.2°
1
20%
 07:11     18:42    Daglengte: 11:31 Maandag 05 Okt
02:00
19°
1007.8 hPa 170.8 mm 17.0°
3
1%
08:00
18°
1007.2 hPa 171.4 mm 14.4°
1
0%
14:00
22°
1006.0 hPa 171.7 mm 14.1°
3
1%
20:00
23°
1014.2 hPa 1.4 mm 17.1°
1
37%
 07:12     18:41    Daglengte: 11:29 Dinsdag 06 Okt
02:00
22°
1013.7 hPa 0.6 mm 16.6°
0
38%
08:00
21°
1012.7 hPa 0.9 mm 16.1°
1
31%
14:00
24°
1011.9 hPa 0.7 mm 15.1°
3
25%
20:00
22°
1011.6 hPa 0.5 mm 16.1°
1
29%
 07:13     18:39    Daglengte: 11:26 Woensdag 07 Okt
02:00
21°
1011.7 hPa 0.3 mm 15.7°
1
27%
08:00
21°
1011.4 hPa 0.6 mm 15.4°
2
34%
14:00
24°
1011.3 hPa 1.2 mm 14.8°
3
29%
20:00
22°
1011.9 hPa 1.2 mm 15.7°
1
27%
 07:14     18:37    Daglengte: 11:23 Donderdag 08 Okt
02:00
21°
1012.3 hPa 0.9 mm 15.3°
1
34%
08:00
20°
1012.2 hPa 1.7 mm 15.4°
1
37%
14:00
23°
1012.4 hPa 0.8 mm 15.1°
3
31%
20:00
22°
1012.7 hPa 0.4 mm 16.3°
1
28%
 07:15     18:36    Daglengte: 11:21 Vrijdag 09 Okt
02:00
21°
1013.1 hPa 0.9 mm 15.7°
1
34%
08:00
20°
1013.2 hPa 2.3 mm 15.4°
0
38%
  CAPE Lifted Index Hail Supercell Tornado SRH 3km CL BTM PRES CL TOP PRES Swiss DWD icon SMHI TS
 07:01     18:59    Daglengte: 11:58 Vandaag
23:00 1009 J/kg -5.4 K 0 % 0 % 0 % 0 m²/s² 0 0 -1.83 95
 07:02     18:57    Daglengte: 11:55 Morgen
00:00 798 J/kg -4.6 K 0 % 0 % 0 % 0 m²/s² 0 0 -0.31 95
01:00 983 J/kg -5.3 K 0 % 0 % 0 % 0 m²/s² 0 0 -1.82 80
02:00 1074 J/kg -5.7 K 0 % 0 % 0 % 0 m²/s² 0 0 -1.65 80
03:00 1131 J/kg -6.1 K 0 % 0 % 0 % 0 m²/s² 0 0 -1.87 80
04:00 1151 J/kg -6.1 K 0 % 0 % 0 % 0 m²/s² 0 0 -1.42 80
05:00 969 J/kg -5.0 K 0 % 0 % 0 % 0 m²/s² 0 0 -0.23 3
06:00 1000 J/kg -5.0 K 0 % 0 % 0 % 0 m²/s² 0 0 -1.76 3
07:00 866 J/kg -4.5 K 0 % 0 % 0 % 0 m²/s² 0 0 -2.43 3
08:00 0 J/kg 2.5 K 0 % 0 % 0 % 0 m²/s² 0 0 2.71 3
09:00 12 J/kg -0.4 K 0 % 0 % 0 % 0 m²/s² 0 0 0.41 3
10:00 161 J/kg -0.5 K 0 % 0 % 0 % 0 m²/s² 0 0 -0.05 3
11:00 143 J/kg -0.7 K 0 % 0 % 0 % 0 m²/s² 0 0 2 3
12:00 566 J/kg -2.9 K 0 % 0 % 0 % 0 m²/s² 0 0 -0.5 3
13:00 643 J/kg -2.1 K 0 % 0 % 0 % 0 m²/s² 0 0 -1.65 2
14:00 28 J/kg 1.4 K 0 % 0 % 0 % 0 m²/s² 0 0 1.52 1
15:00 5 J/kg 0.0 K 0 % 0 % 0 % 0 m²/s² 0 0 2.22 0
16:00 50 J/kg -0.5 K 0 % 0 % 0 % 0 m²/s² 0 0 1.84 1
17:00 177 J/kg 0.0 K 0 % 0 % 0 % 0 m²/s² 0 0 3.54 1
18:00 337 J/kg -0.3 K 0 % 0 % 0 % 0 m²/s² 0 0 1.71 0
19:00 427 J/kg -0.7 K 0 % 0 % 0 % 0 m²/s² 0 0 1.37 0
20:00 432 J/kg -0.6 K 0 % 0 % 0 % 0 m²/s² 0 0 2.85 0
21:00 400 J/kg 0.1 K 0 % 0 % 0 % 0 m²/s² 0 0 4.03 0
22:00 0 J/kg 1.8 K 0 % 0 % 0 % 0 m²/s² 0 0 6.06 0
23:00 0 J/kg 2.0 K 0 % 0 % 0 % 0 m²/s² 0 0 5.75 0
 07:03     18:56    Daglengte: 11:53 Zondag 27 Sep
00:00 0 J/kg 1.9 K 0 % 0 % 0 % 0 m²/s² 0 0 5.74 0
01:00 1 J/kg 2.7 K 0 % 0 % 0 % 0 m²/s² 0 0 6.84 1
02:00 0 J/kg 2.5 K 0 % 0 % 0 % 0 m²/s² 0 0 7.75 1
03:00 0 J/kg 2.2 K 0 % 0 % 0 % 0 m²/s² 0 0 7.18 0
04:00 0 J/kg 2.9 K 0 % 0 % 0 % 0 m²/s² 0 0 7.52 2
05:00 0 J/kg 2.6 K 0 % 0 % 0 % 0 m²/s² 0 0 7.76 2
06:00 0 J/kg 3.9 K 0 % 0 % 0 % 0 m²/s² 0 0 8.46 3
07:00 0 J/kg 3.9 K 0 % 0 % 0 % 0 m²/s² 0 0 6.21 3
08:00 0 J/kg 3.3 K 0 % 0 % 0 % 0 m²/s² 0 0 3.99 80
09:00 34 J/kg 2.3 K 0 % 0 % 0 % 0 m²/s² 0 0 2.42 80
10:00 93 J/kg 1.0 K 0 % 0 % 0 % 0 m²/s² 0 0 1.12 81
11:00 99 J/kg 1.5 K 0 % 0 % 0 % 0 m²/s² 0 0 1.68 81
12:00 22 J/kg 2.6 K 0 % 0 % 0 % 0 m²/s² 0 0 3.38 63
13:00 8 J/kg 2.7 K 0 % 0 % 0 % 0 m²/s² 0 0 3.03 63
14:00 5 J/kg 1.1 K 0 % 0 % 0 % 0 m²/s² 0 0 1.1 61
15:00 0 J/kg 2.5 K 0 % 0 % 0 % 0 m²/s² 0 0 2.62 61
16:00 29 J/kg 1.4 K 0 % 0 % 0 % 0 m²/s² 0 0 3.98 81
17:00 104 J/kg 2.0 K 0 % 0 % 0 % 0 m²/s² 0 0 11.27 3
18:00 202 J/kg 2.0 K 0 % 0 % 0 % 0 m²/s² 0 0 8.36 3
19:00 255 J/kg 1.1 K 0 % 0 % 0 % 0 m²/s² 0 0 6.92 2
20:00 234 J/kg 0.9 K 0 % 0 % 0 % 0 m²/s² 0 0 5.73 1
21:00 262 J/kg 0.9 K 0 % 0 % 0 % 0 m²/s² 0 0 3.75 2
22:00 329 J/kg -0.1 K 0 % 0 % 0 % 0 m²/s² 0 0 1.49 2
23:00 685 J/kg -2.4 K 0 % 0 % 0 % 0 m²/s² 0 0 -1.29 2
 07:04     18:54    Daglengte: 11:50 Maandag 28 Sep
00:00 392 J/kg -1.9 K 0 % 0 % 0 % 0 m²/s² 0 0 -1.18 0
01:00 718 J/kg -3.5 K 0 % 0 % 0 % 0 m²/s² 0 0 -2.87 1
02:00 749 J/kg -3.2 K 0 % 0 % 0 % 0 m²/s² 0 0 -2.09 3
03:00 695 J/kg -3.4 K 0 % 0 % 0 % 0 m²/s² 0 0 -3.01 3
04:00 1081 J/kg -4.2 K 0 % 0 % 0 % 0 m²/s² 0 0 -3 1
05:00 1060 J/kg -3.9 K 0 % 0 % 0 % 0 m²/s² 0 0 -3.57 3
06:00 588 J/kg -2.4 K 0 % 0 % 0 % 0 m²/s² 0 0 -1.29 1
07:00 550 J/kg -2.8 K 0 % 0 % 0 % 0 m²/s² 0 0 -1.6 3
08:00 468 J/kg -2.2 K 0 % 0 % 0 % 0 m²/s² 0 0 -0.73 3
09:00 687 J/kg -3.2 K 0 % 0 % 0 % 0 m²/s² 0 0 -1.19 3
10:00 112 J/kg -3.2 K 0 % 0 % 0 % 0 m²/s² 0 0 -1.16 80
11:00 554 J/kg -2.3 K 0 % 0 % 0 % 0 m²/s² 0 0 0.25 3
12:00 582 J/kg -2.4 K 0 % 0 % 0 % 0 m²/s² 0 0 -0.39 3
13:00 957 J/kg -4.1 K 0 % 0 % 0 % 0 m²/s² 0 0 -2.78 3
14:00 707 J/kg -3.3 K 0 % 0 % 0 % 0 m²/s² 0 0 -0.87 3
15:00 681 J/kg -3.4 K 0 % 0 % 0 % 0 m²/s² 0 0 -0.25 3
16:00 67 J/kg 0.1 K 0 % 0 % 0 % 0 m²/s² 0 0 3.31 3
17:00 10 J/kg 1.6 K 0 % 0 % 0 % 0 m²/s² 0 0 5.29 80
18:00 65 J/kg 0.9 K 0 % 0 % 0 % 0 m²/s² 0 0 5.34 80
19:00 205 J/kg -0.2 K 0 % 0 % 0 % 0 m²/s² 0 0 3.7 80
20:00 172 J/kg 0.0 K 0 % 0 % 0 % 0 m²/s² 0 0 3.09 80
21:00 115 J/kg 0.6 K 0 % 0 % 0 % 0 m²/s² 0 0 2.73
22:00 140 J/kg 0.3 K 0 % 0 % 0 % 0 m²/s² 0 0 2.13
Temp Baro Wind Neerslag
  EWN Forecast EWN WRFDA DWD ICON FMI HIRLAM MET Norway GFS
 07:01     18:59    Daglengte: 11:58 Vandaag
23:00 15.9° 1000.9 hPa 5.5 m/s 3.5 mm 19.2° 999.3 hPa 11.5 m/s 10.3 mm 16.0° 1000.9 hPa 5.3 m/s 0.6 mm 16.1° 999.8 hPa 6.9 m/s 0.0 mm 14.0° 1002.2 hPa 4.0 m/s 16.0° 1001.5 hPa 8.7 m/s
 07:02     18:57    Daglengte: 11:55 Morgen
02:00 14.6° 999.0 hPa 3.0 m/s 10.7 mm 19.2° 997.3 hPa 11.7 m/s 36.9 mm 15.3° 998.4 hPa 2.3 m/s 6.5 mm 14.0° 999.0 hPa 2.6 m/s 0.0 mm 13.5° 1000.1 hPa 2.5 m/s 15.9° 999.5 hPa 8.5 m/s
05:00 14.2° 997.9 hPa 2.2 m/s 6.3 mm 18.4° 996.4 hPa 10.8 m/s 40.6 mm 14.6° 997.7 hPa 1.5 m/s 4.3 mm 13.0° 998.3 hPa 2.0 m/s 0.0 mm 13.3° 998.6 hPa 1.4 m/s 15.3° 998.1 hPa 8.1 m/s
08:00 13.6° 998.3 hPa 3.0 m/s 7.2 mm 12.3° 998.0 hPa 6.6 m/s 48.6 mm 14.3° 997.3 hPa 2.2 m/s 0.3 mm 13.1° 999.2 hPa 1.2 m/s 0.0 mm 13.6° 998.9 hPa 2.8 m/s 15.1° 997.4 hPa 4.2 m/s
11:00 16.5° 999.6 hPa 3.7 m/s 3.3 mm 15.4° 998.1 hPa 2.9 m/s 66.3 mm 16.8° 999.0 hPa 5.2 m/s 0.2 mm 16.3° 1000.0 hPa 3.1 m/s 0.0 mm 16.4° 1000.5 hPa 4.3 m/s 18.6° 999.3 hPa 3.1 m/s
14:00 18.4° 1000.8 hPa 5.7 m/s 0.0 mm 14.4° 1000.1 hPa 5.7 m/s 73.9 mm 18.9° 1000.2 hPa 6.9 m/s 0.1 mm 18.6° 1001.2 hPa 4.5 m/s 0.0 mm 17.7° 1002.1 hPa 5.2 m/s 21.2° 999.9 hPa 7.2 m/s
17:00 18.4° 1001.0 hPa 3.9 m/s 6.7 mm 14.9° 1000.0 hPa 2.9 m/s 95.6 mm 19.4° 1000.2 hPa 5.5 m/s 0.0 mm 18.0° 1001.2 hPa 4.2 m/s 0.0 mm 18.5° 1001.6 hPa 3.9 m/s 18.9° 1000.9 hPa 6.2 m/s
20:00 16.1° 1001.6 hPa 3.3 m/s 0.0 mm 18.3° 998.6 hPa 12.5 m/s 103.5 mm 16.6° 1001.7 hPa 2.7 m/s 0.0 mm 14.7° 1001.2 hPa 2.2 m/s 0.0 mm 16.2° 1002.8 hPa 3.2 m/s 15.5° 1001.7 hPa 5.3 m/s
23:00 13.7° 1002.9 hPa 2.1 m/s 7.8 mm 13.5° 1000.5 hPa 7.9 m/s 109.3 mm 14.8° 1003.1 hPa 0.9 m/s 0.0 mm 12.8° 1003.0 hPa 1.6 m/s 0.0 mm 13.5° 1003.9 hPa 1.4 m/s 14.8° 1002.5 hPa 4.0 m/s
 07:03     18:56    Daglengte: 11:53 Zondag 27 Sep
02:00 13.0° 1003.7 hPa 2.3 m/s 0.0 mm 13.0° 1000.7 hPa 5.1 m/s 109.9 mm 13.4° 1004.4 hPa 1.2 m/s 0.0 mm 11.8° 1003.8 hPa 1.4 m/s 0.0 mm 12.8° 1004.5 hPa 2.2 m/s 15.3° 1002.4 hPa 7.4 m/s
05:00 13.0° 1003.3 hPa 2.3 m/s 0.0 mm 13.0° 1000.6 hPa 4.3 m/s 109.9 mm 14.3° 1004.5 hPa 1.9 m/s 0.2 mm 11.7° 1003.2 hPa 2.3 m/s 0.0 mm 12.6° 1003.8 hPa 2.2 m/s 13.9° 1003.5 hPa 2.0 m/s
08:00 14.1° 1004.3 hPa 3.5 m/s 8.2 mm 14.4° 1001.4 hPa 4.2 m/s 109.9 mm 14.9° 1005.0 hPa 2.8 m/s 1.5 mm 13.0° 1002.6 hPa 3.7 m/s 0.0 mm 13.9° 1005.0 hPa 3.8 m/s 14.1° 1004.6 hPa 1.9 m/s
11:00 15.2° 1004.3 hPa 5.2 m/s 22.0 mm 15.4° 1002.0 hPa 5.3 m/s 112.2 mm 15.6° 1004.9 hPa 4.6 m/s 6.9 mm 15.0° 1002.3 hPa 5.9 m/s 0.0 mm 14.5° 1004.3 hPa 5.5 m/s 17.8° 1004.9 hPa 2.7 m/s
14:00 16.1° 1001.1 hPa 6.0 m/s 26.8 mm 14.5° 1000.7 hPa 4.3 m/s 128.8 mm 16.6° 1001.3 hPa 5.5 m/s 12.2 mm 16.4° 996.1 hPa 9.7 m/s 0.0 mm 16.2° 1001.0 hPa 6.8 m/s 15.1° 1001.4 hPa 4.9 m/s
17:00 16.2° 1001.5 hPa 4.8 m/s 32.3 mm 17.2° 999.8 hPa 1.9 m/s 182.3 mm 17.6° 1000.9 hPa 5.0 m/s 4.1 mm 16.1° 1001.6 hPa 6.4 m/s 17.5° 999.6 hPa 5.4 m/s
20:00 15.6° 1003.5 hPa 3.8 m/s 14.9 mm 19.8° 1001.5 hPa 9.4 m/s 183.4 mm 16.0° 1004.1 hPa 3.1 m/s 0.0 mm 15.2° 1004.0 hPa 2.3 m/s 14.3° 1001.2 hPa 5.8 m/s
23:00 13.9° 1006.7 hPa 3.2 m/s 12.5 mm 17.7° 1003.0 hPa 10.9 m/s 183.9 mm 15.1° 1007.2 hPa 2.2 m/s 0.0 mm 13.5° 1007.5 hPa 2.0 m/s 14.3° 1005.0 hPa 1.6 m/s
 07:04     18:54    Daglengte: 11:50 Maandag 28 Sep
02:00 11.4° 1008.0 hPa 1.9 m/s 0.0 mm 18.3° 1002.2 hPa 5.7 m/s 187.5 mm 13.2° 1008.5 hPa 1.3 m/s 0.0 mm 10.3° 1009.1 hPa 1.8 m/s 13.3° 1006.4 hPa 1.6 m/s
05:00 11.0° 1008.2 hPa 1.9 m/s 0.0 mm 18.8° 1001.0 hPa 11.2 m/s 197.3 mm 13.2° 1008.8 hPa 1.8 m/s 0.0 mm 9.9° 1009.6 hPa 0.7 m/s 13.0° 1007.6 hPa 2.9 m/s
08:00 13.4° 1009.5 hPa 2.7 m/s 0.0 mm 18.9° 1002.1 hPa 8.5 m/s 204.9 mm 14.6° 1009.9 hPa 2.5 m/s 0.3 mm 13.2° 1010.9 hPa 2.4 m/s 13.1° 1009.2 hPa 2.1 m/s
11:00 16.3° 1010.3 hPa 2.5 m/s 71.7 mm 19.1° 1003.8 hPa 1.4 m/s 212.3 mm 17.4° 1010.3 hPa 4.5 m/s 1.4 mm 15.0° 1010.8 hPa 2.7 m/s 17.8° 1010.3 hPa 1.9 m/s
14:00 17.8° 1010.3 hPa 3.6 m/s 73.8 mm 20.9° 1005.0 hPa 9.7 m/s 216.5 mm 17.4° 1010.4 hPa 3.8 m/s 2.4 mm 16.9° 1010.7 hPa 3.0 m/s 19.5° 1011.1 hPa 3.1 m/s
17:00 16.8° 1009.8 hPa 3.9 m/s 73.7 mm 21.3° 1006.7 hPa 9.4 m/s 217.0 mm 17.5° 1008.7 hPa 4.2 m/s 2.0 mm 15.3° 1011.2 hPa 2.6 m/s 18.8° 1011.1 hPa 2.7 m/s
20:00 15.5° 1010.4 hPa 2.9 m/s 75.8 mm 19.8° 1009.1 hPa 4.9 m/s 217.0 mm 16.6° 1009.0 hPa 3.2 m/s 5.2 mm 13.7° 1011.8 hPa 2.2 m/s 16.1° 1012.7 hPa 1.4 m/s
23:00 13.7° 1012.3 hPa 1.9 m/s 217.0 mm 20.7° 1010.0 hPa 3.2 m/s 217.0 mm 12.6° 1012.6 hPa 1.7 m/s 15.6° 1014.5 hPa 2.0 m/s
 07:05     18:52    Daglengte: 11:47 Dinsdag 29 Sep
02:00 12.7° 1013.0 hPa 1.3 m/s 217.1 mm 20.6° 1010.0 hPa 2.6 m/s 217.1 mm 11.4° 1013.5 hPa 1.1 m/s 16.8° 1014.9 hPa 2.9 m/s
05:00 12.4° 1014.9 hPa 1.3 m/s 71.1 mm 12.0° 1014.9 hPa 1.2 m/s 17.0° 1015.1 hPa 3.1 m/s 71.1 mm
08:00 12.7° 1015.6 hPa 1.3 m/s 71.1 mm 12.3° 1015.6 hPa 1.2 m/s 17.1° 1015.9 hPa 2.6 m/s 71.1 mm
11:00 16.8° 1016.5 hPa 1.9 m/s 71.1 mm 16.4° 1016.5 hPa 1.9 m/s 21.7° 1016.4 hPa 2.7 m/s 71.1 mm
14:00 20.6° 1017.4 hPa 2.6 m/s 71.1 mm 20.4° 1017.5 hPa 2.5 m/s 22.6° 1016.6 hPa 3.3 m/s 71.1 mm
17:00 19.2° 1016.9 hPa 1.9 m/s 71.1 mm 18.9° 1017.0 hPa 1.9 m/s 22.0° 1015.8 hPa 2.3 m/s 71.1 mm
20:00 17.5° 1016.5 hPa 1.3 m/s 71.2 mm 17.4° 1016.5 hPa 1.3 m/s 19.2° 1016.5 hPa 1.2 m/s 71.2 mm
23:00 17.3° 1016.3 hPa 2.2 m/s 71.8 mm 17.1° 1016.2 hPa 2.2 m/s 19.6° 1016.6 hPa 1.8 m/s 71.8 mm
 07:06     18:51    Daglengte: 11:45 Woensdag 30 Sep
02:00 17.0° 1016.0 hPa 3.1 m/s 72.8 mm 16.8° 1016.0 hPa 3.2 m/s 19.3° 1016.2 hPa 1.5 m/s 72.8 mm
05:00 17.2° 1015.3 hPa 3.5 m/s 73.6 mm 17.1° 1015.3 hPa 3.7 m/s 18.5° 1014.7 hPa 0.7 m/s 73.6 mm
08:00 17.6° 1014.6 hPa 3.9 m/s 74.1 mm 17.4° 1014.6 hPa 4.2 m/s 19.3° 1014.6 hPa 0.3 m/s 74.1 mm
11:00 19.7° 1014.2 hPa 3.1 m/s 74.4 mm 19.5° 1014.2 hPa 3.2 m/s 21.6° 1014.1 hPa 2.0 m/s 74.4 mm
14:00 21.8° 1013.7 hPa 2.2 m/s 74.7 mm 21.7° 1013.8 hPa 2.1 m/s 22.5° 1013.0 hPa 3.2 m/s 74.7 mm
17:00 20.3° 1013.2 hPa 1.5 m/s 74.7 mm 20.2° 1013.3 hPa 1.4 m/s 21.8° 1012.0 hPa 2.9 m/s 74.7 mm
20:00 18.7° 1012.8 hPa 0.8 m/s 74.7 mm 18.7° 1012.8 hPa 0.7 m/s 18.6° 1012.3 hPa 1.6 m/s 74.7 mm
23:00 17.7° 1012.8 hPa 1.0 m/s 74.7 mm 17.7° 1012.8 hPa 1.0 m/s 18.2° 1012.6 hPa 1.6 m/s 74.7 mm
 07:07     18:49    Daglengte: 11:42 Donderdag 01 Okt
02:00 16.8° 1012.7 hPa 1.3 m/s 74.7 mm 16.7° 1012.8 hPa 1.3 m/s 17.6° 1011.7 hPa 1.5 m/s 74.7 mm
05:00 16.9° 1012.4 hPa 1.1 m/s 74.7 mm 16.9° 1012.5 hPa 1.1 m/s 17.0° 1010.5 hPa 1.5 m/s 74.7 mm
08:00 17.2° 1012.1 hPa 0.8 m/s 74.7 mm 17.1° 1012.3 hPa 0.8 m/s 17.8° 1010.4 hPa 1.4 m/s 74.7 mm
11:00 19.1° 1012.4 hPa 1.5 m/s 74.8 mm 18.9° 1012.5 hPa 1.5 m/s 21.5° 1010.3 hPa 1.0 m/s 74.8 mm
14:00 20.8° 1012.6 hPa 2.3 m/s 75.2 mm 20.7° 1012.8 hPa 2.2 m/s 22.5° 1010.0 hPa 3.4 m/s 75.2 mm
17:00 19.6° 1012.4 hPa 1.6 m/s 76.3 mm 19.4° 1012.6 hPa 1.5 m/s 21.7° 1009.8 hPa 2.4 m/s 76.3 mm
20:00 18.2° 1012.3 hPa 0.8 m/s 76.6 mm 18.1° 1012.4 hPa 0.8 m/s 18.9° 1011.0 hPa 0.7 m/s 76.6 mm
23:00 17.5° 1012.0 hPa 1.1 m/s 76.6 mm 17.4° 1012.0 hPa 1.1 m/s 18.3° 1012.3 hPa 0.6 m/s 76.6 mm
 07:08     18:47    Daglengte: 11:39 Vrijdag 02 Okt
02:00 16.8° 1011.7 hPa 1.4 m/s 76.6 mm 16.7° 1011.6 hPa 1.4 m/s 17.9° 1012.5 hPa 1.3 m/s 76.6 mm
05:00 17.1° 1011.3 hPa 1.9 m/s 76.6 mm 17.1° 1011.2 hPa 1.9 m/s 17.1° 1012.0 hPa 1.8 m/s 76.6 mm
08:00 17.6° 1011.0 hPa 2.5 m/s 76.6 mm 17.6° 1010.9 hPa 2.5 m/s 17.4° 1012.5 hPa 1.9 m/s 76.6 mm
11:00 19.6° 1011.9 hPa 4.1 m/s 76.6 mm 19.4° 1011.8 hPa 4.3 m/s 22.3° 1013.5 hPa 1.7 m/s 76.6 mm
14:00 21.4° 1012.6 hPa 5.8 m/s 76.6 mm 21.2° 1012.6 hPa 6.1 m/s 23.7° 1013.0 hPa 2.8 m/s 76.6 mm
17:00 20.0° 1012.9 hPa 3.4 m/s 76.6 mm 19.8° 1012.9 hPa 3.4 m/s 22.7° 1013.0 hPa 2.9 m/s 76.6 mm
20:00 18.5° 1013.2 hPa 0.9 m/s 76.6 mm 18.4° 1013.2 hPa 0.8 m/s 19.1° 1013.8 hPa 1.4 m/s 76.6 mm
 07:09     18:46    Daglengte: 11:37 Zaterdag 03 Okt
02:00 14.3° 1015.2 hPa 1.0 m/s 76.6 mm 13.9° 1015.3 hPa 0.8 m/s 18.2° 1014.4 hPa 2.8 m/s 76.6 mm
08:00 15.9° 1015.9 hPa 1.2 m/s 76.6 mm 15.6° 1016.1 hPa 1.0 m/s 18.6° 1013.7 hPa 3.6 m/s 76.6 mm
14:00 21.4° 1016.6 hPa 2.8 m/s 76.9 mm 20.9° 1017.0 hPa 2.6 m/s 26.5° 1012.6 hPa 5.4 m/s 76.9 mm
20:00 17.3° 1016.3 hPa 1.3 m/s 76.9 mm 16.9° 1016.7 hPa 1.0 m/s 21.5° 1011.5 hPa 4.5 m/s 76.9 mm
 07:10     18:44    Daglengte: 11:34 Zondag 04 Okt
02:00 15.9° 1016.8 hPa 0.9 m/s 76.9 mm 15.4° 1017.4 hPa 0.7 m/s 21.1° 1010.2 hPa 3.0 m/s 76.9 mm
08:00 17.1° 1016.3 hPa 1.0 m/s 76.9 mm 16.7° 1017.0 hPa 0.8 m/s 22.0° 1008.2 hPa 3.6 m/s 76.9 mm
14:00 21.7° 1015.8 hPa 2.7 m/s 77.8 mm 21.4° 1016.6 hPa 2.3 m/s 24.5° 1007.1 hPa 7.0 m/s 77.8 mm
20:00 18.2° 1014.6 hPa 1.3 m/s 84.8 mm 18.0° 1015.3 hPa 1.3 m/s 20.6° 1007.3 hPa 1.9 m/s 84.8 mm
 07:11     18:42    Daglengte: 11:31 Maandag 05 Okt
02:00 19.0° 1007.8 hPa 2.5 m/s 85.6 mm 19.0° 1007.8 hPa 2.5 m/s 85.6 mm
08:00 18.0° 1007.2 hPa 0.8 m/s 85.7 mm 18.0° 1007.2 hPa 0.8 m/s 85.7 mm
14:00 22.1° 1006.0 hPa 3.1 m/s 85.9 mm 22.1° 1006.0 hPa 3.1 m/s 85.9 mm
20:00 23.0° 1014.2 hPa 1.2 m/s 1.4 mm
 07:12     18:41    Daglengte: 11:29 Dinsdag 06 Okt
02:00 21.8° 1013.7 hPa 0.5 m/s 0.6 mm
08:00 21.3° 1012.7 hPa 1.1 m/s 0.9 mm
14:00 24.4° 1011.9 hPa 2.8 m/s 0.7 mm
20:00 22.1° 1011.6 hPa 1.4 m/s 0.5 mm
 07:13     18:39    Daglengte: 11:26 Woensdag 07 Okt
02:00 21.1° 1011.7 hPa 1.3 m/s 0.3 mm
08:00 20.8° 1011.4 hPa 2.0 m/s 0.6 mm
14:00 23.8° 1011.3 hPa 3.2 m/s 1.2 mm
20:00 21.7° 1011.9 hPa 1.1 m/s 1.2 mm
 07:14     18:37    Daglengte: 11:23 Donderdag 08 Okt
02:00 20.6° 1012.3 hPa 0.7 m/s 0.9 mm
08:00 20.4° 1012.2 hPa 0.9 m/s 1.7 mm
14:00 23.5° 1012.4 hPa 2.6 m/s 0.8 mm
20:00 21.6° 1012.7 hPa 1.1 m/s 0.4 mm
 07:15     18:36    Daglengte: 11:21 Vrijdag 09 Okt
02:00 20.7° 1013.1 hPa 0.8 m/s 0.9 mm
08:00 20.3° 1013.2 hPa 0.5 m/s 2.3 mm
FMI Hirlam - 7.5 km EWN WRFDA - 12 km DWD ICON - 7 km GFS - 25 km Basiskaart






























































Updatetijd (Europe/Brussels) Resolutie Lengte Stap
FMI Hirlam 19:00, 01:00, 07:00, 13:00 7.5 km 49h 1h
EWN WRFDA 21:45, 03:45, 09:45, 15:45 12 km 73h 1h
DWD ICON 18:15, 00:15, 06:15, 12:15 7 km 75h 1h
GFS 19:45, 01:45, 07:45, 13:45 25 km 237h 3h
30+ mm
25-30 mm
20-25 mm
15-20 mm
10-15 mm
6-10 mm
4-6 mm
2-4 mm
1-2 mm
0.5-1 mm
0.2-0.5 mm
0.1-0.2 mm
30+ mm
25-30 mm
20-25 mm
15-20 mm
10-15 mm
6-10 mm
4-6 mm
2-4 mm
1-2 mm
0.5-1 mm
0.2-0.5 mm
0.1-0.2 mm
Sneeuwval
Natte sneeuw
Hagel
Vorst
30+ mm
25-30 mm
20-25 mm
15-20 mm
10-15 mm
6-10 mm
4-6 mm
2-4 mm
1-2 mm
0.5-1 mm
0.2-0.5 mm
0.1-0.2 mm
Sneeuwval
Natte sneeuw
Hagel
Vorst
Onweer
50 mm
40 mm
30 mm
26 mm
22 mm
18 mm
14 mm
10 mm
9 mm
8 mm
7 mm
6 mm
5 mm
4.5 mm
4 mm
3.5 mm
3 mm
2.5 mm
2 mm
1.5 mm
1 mm
0.8 mm
0.6 mm
0.4 mm
0.2 mm
0.05 mm
35°
30°
25°
20°
15°
10°
-5°
-10°
-15°
-20°
-25°
-30°
-35°
33> m/s
29 m/s
25 m/s
21 m/s
17 m/s
14 m/s
11 m/s
8 m/s
5 m/s
3 m/s
0 m/s
2600 J/kg
2400 J/kg
2200 J/kg
2000 J/kg
1800 J/kg
1600 J/kg
1400 J/kg
1200 J/kg
1000 J/kg
800 J/kg
600 J/kg
400 J/kg
200 J/kg
70 dBZ
65 dBZ
60 dBZ
55 dBZ
50 dBZ
45 dBZ
40 dBZ
35 dBZ
30 dBZ
25 dBZ
20 dBZ
15 dBZ
10 dBZ
5 dBZ
-1 K
-2 K
-3 K
-4 K
-5 K
-6 K
-7 K
-8 K
-9 K
950 m²/s²
900 m²/s²
850 m²/s²
800 m²/s²
750 m²/s²
700 m²/s²
650 m²/s²
600 m²/s²
550 m²/s²
500 m²/s²
450 m²/s²
400 m²/s²
350 m²/s²
300 m²/s²
250 m²/s²
200 m²/s²
150 m²/s²
100 m²/s²
46 m/s
44 m/s
42 m/s
40 m/s
38 m/s
36 m/s
34 m/s
32 m/s
30 m/s
28 m/s
26 m/s
24 m/s
22 m/s
20 m/s
16 m/s
12 m/s
8 m/s
4 m/s
30 m/s
28 m/s
26 m/s
24 m/s
22 m/s
20 m/s
18 m/s
16 m/s
14 m/s
12 m/s
10 m/s
8 m/s
6 m/s
4 m/s
2 m/s
3.0
2.8
2.6
2.4
2.2
2.0
1.8
1.6
1.4
1.2
1.0
0.8
0.6
0.4
0.2
15
14
13
12
11
10
9
8
7
6
5
4
3
2
1
90%
80%
70%
60%
50%
40%
30%
20%
10%
42
40
38
36
34
32
30
28
26
24
22
20
18
16
14
12
90+ cm
80-90 cm
70-80 cm
60-70 cm
50-60 cm
40-50 cm
30-40 cm
20-30 cm
10-20 cm
1-10 cm
Sneeuwval
Natte sneeuw
Regen
>120 mm
115 mm
110 mm
105 mm
100 mm
95 mm
90 mm
85 mm
80 mm
75 mm
70 mm
65 mm
60 mm
55 mm
50 mm
45 mm
45 mm
40 mm
35 mm
30 mm
25 mm
20 mm
15 mm
10 mm
5 mm
0.1 mm
960 hPa
880 hPa
800 hPa
720 hPa
640 hPa
560 hPa
584 gpdm
568 gpdm
552 gpdm
536 gpdm
520 gpdm
504 gpdm
488 gpdm
Extreem zwaar Noodweer Kans op onweer
15% 15% 5% 50% 15%

Dag




Kaart